Printer-friendly version

IAU Minor Planet Center

Minor Planet Center

MPEC 2005-G24 : 2005 GL9

The following Minor Planet Electronic Circular may be linked-to from your own Web pages, but must not otherwise be redistributed electronically.


Read MPEC 2005-G23 Read MPEC 2005-G25


M.P.E.C. 2005-G24                                Issued 2005 Apr. 4, 22:11 UT

     The Minor Planet Electronic Circulars contain information on unusual
         minor planets and routine data on comets.  They are published
   on behalf of Commission 20 of the International Astronomical Union by the
          Minor Planet Center, Smithsonian Astrophysical Observatory,
                          Cambridge, MA 02138, U.S.A.

                  Supported in part by the Brinson Foundation
             Prepared using the Tamkin Foundation Computer Network

                              MPC@CFA.HARVARD.EDU
          URL http://cfa-www.harvard.edu/iau/mpc.html  ISSN 1523-6714

                                   2005 GL9

Observations:
     K05G09L* C2005 04 03.12085 09 09 54.90 -18 23 48.0          19.0   EG024704
     K05G09L  C2005 04 03.14169 09 09 56.25 -18 22 59.7          19.9   EG024704
     K05G09L  C2005 04 03.15198 09 09 56.96 -18 22 35.9          19.4   EG024704
     K05G09L  C2005 04 03.16256 09 09 57.61 -18 22 12.3          18.9   EG024704
     K05G09L  C2005 04 04.12542 09 11 03.49 -17 46 14.9          18.5   EG024704
     K05G09L  C2005 04 04.13896 09 11 04.34 -17 45 44.6          18.7   EG024704
     K05G09L  C2005 04 04.14935 09 11 05.03 -17 45 22.0          18.7   EG024704
     K05G09L  C2005 04 04.16707 09 11 06.17 -17 44 43.3          18.2 R EG024G96
     K05G09L  C2005 04 04.17006 09 11 06.38 -17 44 36.4          19.1   EG024704
     K05G09L  C2005 04 04.17355 09 11 06.58 -17 44 29.4          18.2 R EG024G96
     K05G09L  C2005 04 04.18004 09 11 07.02 -17 44 15.1          18.4 R EG024G96
     K05G09L  C2005 04 04.18653 09 11 07.40 -17 44 00.7          17.6 R EG024G96
     K05G09L  C2005 04 04.19427 09 11 07.93 -17 43 44.5          19.4 R EG024651
     K05G09L  C2005 04 04.19562 09 11 08.04 -17 43 40.9          19.6 R EG024651
     K05G09L  C2005 04 04.19799 09 11 08.20 -17 43 36.2          19.4 R EG024651
     K05G09L  C2005 04 04.82545 09 11 50.95 -17 21 04.3                 EG024246
     K05G09L  C2005 04 04.82598 09 11 50.98 -17 21 03.3                 EG024246
     K05G09L  C2005 04 04.82656 09 11 51.02 -17 21 01.9                 EG024246
     K05G09L  C2005 04 04.82726 09 11 51.07 -17 21 00.5                 EG024246
     K05G09L  C2005 04 04.82788 09 11 51.11 -17 20 58.4                 EG024246
     K05G09L  C2005 04 04.82867 09 11 51.19 -17 20 57.9                 EG024246
     K05G09L  C2005 04 04.82922 09 11 51.14 -17 20 55.7                 EG024246

Observer details:
246 Klet Observatory-KLENOT.  Observer M. Tichy.  1.06-m KLENOT Telescope
    + CCD.
651 Grasslands Observatory, Tucson.  Observer J. E. McGaha.  0.62-m f/5.1
    Newtonian reflector + CCD.
704 Lincoln Laboratory ETS, New Mexico.  Observers M. Blythe, F. Shelly,
    M. Bezpalko, R. Huber, L. Manguso, D. Torres, R. Kracke, M. McCleary,
    H. Stange, A. Milner.  Measurers J. Stuart, R. Sayer, J. Evans, J. Kommers.
    1.0-m f/2.15 reflector + CCD.
G96 Mt. Lemmon Survey.  Observer A. Grauer.  Measurers E. C. Beshore,
    C. M. Casey, E. J. Christensen, G. J. Garradd, R. E. Hill, S. M. Larson,
    R. H. McNaught.  1.5-m reflector + CCD.

Orbital elements:
2005 GL9
Epoch 2005 Mar. 31.0 TT = JDT 2453460.5                 MPC
M  26.72091              (2000.0)            P               Q
n   0.35959225     Peri.  160.11987     +0.86878252     -0.43064276
a   1.9585252      Node   227.88917     +0.39797065     +0.90097375
e   0.8846893      Incl.   19.24064     +0.29467999     +0.05284984
P   2.74           H   17.0           G   0.15
From 22 observations 2005 Apr. 3-4.

Ephemeris:
2005 GL9                 a,e,i = 1.96, 0.88, 19                  q = 0.2258
Date    TT    R. A. (2000) Decl.     Delta      r     Elong.  Phase     V
2005 03 31    09 06.31   -20 31.6    0.718    1.536   126.1    31.7    18.6
2005 04 10    09 17.66   -14 36.6    0.905    1.666   121.7    30.8    19.2
2005 04 20    09 28.83   -10 45.0    1.106    1.788   115.7    30.4    19.8
2005 04 30    09 40.10   -08 12.3    1.318    1.903   109.1    30.0    20.3
2005 05 10    09 51.53   -06 32.9    1.537    2.012   102.4    29.4    20.7
2005 05 20    10 03.15   -05 31.6    1.761    2.115    95.6    28.4    21.1
2005 05 30    10 14.90   -04 58.1    1.986    2.213    88.9    27.3    21.4
2005 06 09    10 26.75   -04 45.8    2.211    2.305    82.3    25.9    21.7
2005 06 19    10 38.67   -04 50.0    2.433    2.394    75.7    24.3    22.0

Timothy B. Spahr             (C) Copyright 2005 MPC           M.P.E.C. 2005-G24

Read MPEC 2005-G23 Read MPEC 2005-G25


Our Web policy. Index to the CBAT/MPC/ICQ pages.


Valid HTML 4.01!